SCP
0 0 0 0 0 0 0 0 0 0 0 0 0 0 0 0 0 0 0 0 0 0 0 0 0 0 1 0 1 1 1 1 1 1 1 1 1 1 1 1 1 1 1 1 1 1 1 1 1
0 0 0 0 0 0 0 0 0 0 0 0 0 0 0 0 0 0 0 0 0 0 0 0 0 0 1 1 1 1 1 1 1 1 1 1 1 1 1 1 1 1 1 1 1 1 1 1 1
0 0 0 0 0 0 0 0 0 0 0 0 0 0 0 0 0 0 0 0 0 0 0 0 0 1 1 1 1 1 1 1 1 1 1 1 1 1 1 1 1 1 1 1 1 1 1 1 1
0 0 0 0 0 0 0 0 0 0 0 0 0 0 0 0 0 0 0 0 0 0 0 0 0 1 1 1 1 1 1 1 1 1 1 1 1 1 1 1 1 1 1 1 1 1 1 1 1
0 0 0 0 0 0 0 0 0 0 0 0 0 0 0 0 0 0 0 0 0 0 0 0 0 1 1 1 1 1 1 1 1 1 1 1 1 1 1 1 1 1 1 1 1 1 1 1 1
0 0 0 0 0 0 0 0 0 0 0 0 0 0 0 0 0 0 1 1 1 1 1 0 0 1 1 1 1 1 1 1 1 1 1 1 1 1 1 1 1 1 1 1 1 1 1 1 1
0 0 0 0 0 0 0 0 0 0 0 0 0 0 0 0 0 0 0 0 1 1 1 0 0 0 0 1 1 1 1 1 1 1 1 1 1 1 1 1 1 1 2 2 2 1 1 1 1
0 0 0 0 0 0 0 0 0 0 0 0 0 0 0 0 0 0 0 0 0 0 0 0 0 0 1 1 0 0 0 0 1 1 1 0 0 1 1 1 1 1 1 2 2 2 2 1 1
0 0 0 0 0 0 0 0 0 0 0 0 0 0 0 0 0 0 0 0 0 0 0 0 0 0 1 1 0 0 0 0 0 0 0 0 0 0 0 0 1 1 1 1 1 1 1 1 1
0 0 0 0 0 0 0 0 0 0 0 0 0 0 0 0 0 0 0 0 0 0 0 1 1 1 1 1 0 0 0 0 0 0 0 0 0 0 0 0 0 0 1 1 1 1 1 1 1
0 0 0 0 0 0 0 0 0 0 0 0 0 0 0 0 0 0 0 0 0 0 1 1 1 1 1 1 0 0 0 0 0 0 0 0 0 0 0 0 0 0 0 1 1 1 0 0 0
0 0 0 0 0 0 0 0 0 0 0 0 0 0 0 0 0 0 0 0 0 0 1 1 1 1 1 1 0 0 0 0 0 0 0 0 0 0 0 0 0 0 0 1 1 1 0 0 0
0 0 0 0 0 0 0 0 0 0 0 0 0 0 0 0 0 0 0 0 0 0 1 1 1 1 1 1 0 0 0 0 0 0 0 0 0 0 0 0 0 1 1 1 1 0 0 0 0
0 0 0 0 0 0 0 0 0 0 0 0 0 0 0 0 0 0 0 0 0 0 0 1 1 1 1 1 0 0 0 0 0 0 0 0 0 0 0 0 0 1 1 1 1 0 0 0 0
0 0 0 0 0 0 0 0 0 0 0 0 0 0 0 0 0 0 0 0 0 0 0 0 1 1 1 1 1 0 0 0 0 0 0 0 0 0 0 0 0 1 1 1 1 0 0 0 0
0 0 0 0 0 0 0 0 0 0 0 0 0 0 0 0 0 0 0 0 0 0 0 0 1 1 2 1 1 0 0 0 0 0 0 0 0 0 0 0 0 1 1 1 0 0 0 0 0
0 0 0 0 0 0 0 0 0 0 0 0 0 0 0 0 0 0 0 0 0 0 0 0 1 1 2 1 1 0 0 0 0 0 0 0 0 0 0 0 0 1 1 0 0 0 0 0 0
0 0 0 0 0 0 0 0 0 0 0 0 0 0 0 0 0 0 0 0 0 0 0 0 0 1 2 1 1 0 0 0 0 0 0 0 0 0 0 0 0 1 1 0 0 0 0 0 0
0 0 0 0 0 0 0 0 0 0 0 0 0 0 0 0 0 0 0 0 0 0 0 0 1 1 2 1 1 0 0 0 0 0 0 0 0 0 0 0 0 1 1 0 0 0 0 0 0
0 0 0 0 0 0 0 0 0 0 0 0 0 0 0 0 0 0 0 0 0 1 1 1 1 1 1 1 1 1 0 0 0 0 0 0 0 0 0 0 0 0 1 0 0 0 0 0 0
0 0 0 0 0 0 0 0 0 0 0 0 0 0 0 0 0 0 0 0 0 1 1 1 1 1 1 1 1 1 0 0 0 0 0 0 0 0 0 0 0 0 0 0 0 0 0 0 0
0 0 0 0 0 0 0 0 0 0 0 0 0 0 0 0 0 0 0 0 0 0 1 1 1 1 1 1 1 1 1 0 0 0 0 0 1 1 0 0 0 0 0 0 0 0 0 0 0
0 0 0 0 0 0 0 0 0 0 0 0 0 0 0 0 0 0 0 0 0 0 1 1 1 1 1 1 1 1 1 1 0 0 0 0 1 1 1 0 0 0 0 0 0 0 0 0 0
0 0 0 0 0 0 0 0 0 0 0 0 0 0 0 0 0 0 0 0 0 0 0 1 1 1 1 1 1 1 1 1 0 0 0 0 1 1 1 0 0 0 0 0 0 0 0 0 0
0 0 0 0 0 0 0 0 0 0 0 0 0 0 0 0 0 0 0 0 0 0 0 1 1 1 1 1 1 1 1 1 0 0 0 0 1 1 1 0 0 0 0 0 0 0 0 0 0
0 0 0 0 0 0 0 0 0 0 0 0 0 0 0 0 0 0 0 0 0 0 0 0 1 1 1 1 1 1 1 1 0 0 0 0 1 1 1 0 0 0 0 0 0 0 0 0 0
0 0 0 0 0 0 0 0 0 0 0 0 0 0 0 0 0 0 0 0 0 0 0 0 0 1 1 1 1 1 1 1 0 0 0 0 0 0 0 0 0 0 0 0 0 0 0 0 0
0 0 0 0 0 0 0 0 0 0 0 0 0 0 0 0 0 0 0 0 0 0 0 0 0 0 0 1 1 1 1 1 0 0 0 0 0 0 0 0 0 0 0 0 0 0 0 0 0
0 0 0 0 0 0 0 0 0 0 0 0 0 0 0 0 0 0 0 0 0 0 0 0 0 0 0 0 1 1 1 0 0 0 0 0 0 0 0 0 0 0 0 0 0 0 0 0 0
0 0 0 0 0 0 0 0 0 0 0 0 0 0 0 0 0 0 0 0 0 0 0 0 0 0 0 0 0 0 0 0 0 0 0 0 0 0 0 0 0 0 0 0 0 0 0 0 0
Wind_Speed
6 3 2 4 5 4 2 4 2 1 1 0 1 1 3 3 2 1 1 2 2 3 2 3 5 6 7 7 8 8 7 7 7 7 7 6 6 6 7 7 7 7 7 7 7 7 7 8 8
2 2 4 5 4 1 4 3 2 2 1 1 2 2 2 1 1 1 1 1 2 3 2 2 4 6 6 7 7 7 7 7 7 6 6 6 6 6 6 6 6 6 5 6 6 6 6 7 7
1 3 4 4 3 4 4 2 2 1 1 1 2 2 1 1 1 0 1 1 3 3 2 2 4 5 6 7 6 7 7 6 6 6 6 5 5 6 6 5 5 4 4 5 5 5 5 6 6
3 4 5 4 3 4 3 2 1 1 2 2 1 1 1 1 1 1 2 3 4 3 2 2 4 5 6 6 6 6 6 6 6 6 5 5 5 5 5 5 4 4 4 4 4 4 5 6 6
4 4 3 0 3 3 2 2 1 1 1 2 1 1 1 2 2 2 4 4 4 3 2 2 4 5 5 5 5 5 5 5 5 5 5 4 4 5 5 4 4 4 3 3 3 4 5 5 5
4 4 3 3 4 3 2 1 0 1 1 1 1 1 2 1 2 1 3 3 2 3 3 2 3 4 5 5 5 5 5 4 4 4 4 4 4 4 4 4 3 3 3 3 3 3 3 4 4
4 4 3 3 3 3 2 0 1 1 1 2 2 2 2 1 1 2 3 3 3 3 3 2 2 3 4 4 4 4 4 4 4 4 4 4 4 4 4 3 3 3 2 2 2 2 2 3 3
4 4 2 2 3 3 2 0 0 1 2 1 2 3 3 1 1 3 3 3 3 3 2 2 2 2 2 2 3 4 4 4 3 4 4 4 4 4 3 3 3 3 2 2 2 2 2 2 2
3 3 3 4 4 3 1 0 2 1 0 0 1 1 1 2 3 4 3 2 2 2 1 2 1 2 2 2 2 3 3 3 4 3 4 3 2 2 2 3 3 3 3 3 3 3 3 3 2
3 3 5 3 2 1 0 1 1 1 1 1 1 1 1 3 3 3 2 2 2 1 1 1 1 1 2 2 2 2 2 2 3 3 3 2 2 2 3 3 4 4 4 3 3 3 3 3 1
3 5 3 2 2 1 1 2 1 1 3 5 4 3 2 2 2 3 3 3 3 3 2 1 1 2 2 1 1 1 1 2 2 2 2 2 2 2 2 2 2 3 3 2 2 3 2 1 0
2 2 2 2 1 1 2 2 2 3 7 4 3 2 3 3 4 5 5 4 2 2 2 2 2 2 2 2 1 1 1 1 1 1 2 2 1 1 1 1 1 1 1 1 1 1 1 1 1
1 2 1 2 1 2 1 3 3 6 6 3 1 1 3 4 4 3 3 2 2 2 3 3 2 2 2 2 1 1 1 1 1 1 1 2 1 1 1 1 1 1 1 1 1 1 1 1 1
2 2 3 3 2 2 2 4 2 8 3 2 2 3 4 4 5 3 2 3 3 3 3 3 3 3 3 2 2 1 1 1 1 1 1 1 1 1 1 0 0 1 1 0 0 0 0 0 0
0 2 4 2 1 1 1 5 6 7 1 2 3 3 3 4 3 4 4 4 4 3 3 3 4 3 3 3 2 1 1 1 1 1 1 1 1 2 1 1 0 0 1 1 1 1 1 1 1
1 1 3 3 1 1 2 8 7 2 2 4 4 4 4 4 4 4 3 3 3 2 2 3 2 3 3 3 2 1 1 1 1 1 1 1 1 2 2 1 1 0 0 1 1 1 1 1 1
1 1 3 4 1 1 3 8 7 1 2 5 5 4 4 4 4 4 3 3 3 3 3 3 3 3 3 3 2 2 2 2 1 1 1 1 2 2 2 1 1 1 1 0 0 1 1 1 2
4 3 3 4 2 1 3 9 8 4 3 5 5 4 4 4 6 4 3 3 2 2 2 2 2 2 2 2 2 1 1 1 1 1 1 2 2 2 2 1 1 1 1 0 0 1 1 1 1
3 3 4 4 2 2 6 10 11 6 4 4 4 4 4 5 4 2 2 1 1 1 2 2 2 2 2 2 2 2 2 1 1 1 2 2 2 2 2 1 1 2 2 2 1 0 1 1 1
3 4 5 4 1 2 5 10 9 5 5 5 5 6 6 5 3 2 1 1 2 2 2 2 3 2 3 3 2 2 2 2 2 2 2 2 2 2 2 2 2 2 2 2 1 1 1 0 1
5 7 6 4 3 2 4 8 6 4 3 4 4 5 5 5 5 4 2 2 2 2 3 3 3 3 2 2 1 1 1 1 1 1 2 2 2 2 2 3 2 2 3 3 2 2 1 1 1
7 4 4 2 1 3 0 7 7 4 4 4 5 4 5 5 4 3 2 2 2 3 3 3 3 2 2 3 3 3 2 2 3 2 2 2 2 2 2 3 2 2 2 2 2 2 1 2 1
3 2 2 2 2 3 2 4 9 1 5 6 6 6 6 4 3 3 2 2 2 2 2 2 2 2 2 3 3 4 3 2 1 0 1 2 2 2 2 2 2 2 2 2 3 2 2 2 2
3 3 3 3 2 5 6 5 10 5 6 5 4 5 4 3 2 1 1 1 1 1 1 0 1 1 1 2 2 3 3 2 1 1 2 1 1 1 2 2 2 2 2 3 3 3 3 2 2
3 4 2 3 1 7 3 5 11 5 5 5 5 4 2 1 1 1 1 1 2 2 2 1 0 1 0 1 2 2 3 3 4 3 3 2 1 2 3 2 3 3 3 3 2 3 3 3 3
6 6 7 6 6 5 2 9 8 4 3 2 2 1 1 1 1 1 1 1 2 2 2 2 1 1 1 1 2 1 2 2 2 2 2 3 2 3 3 3 3 3 3 2 3 2 3 3 3
5 5 4 4 0 3 7 8 8 2 2 2 1 1 1 1 1 1 2 2 2 2 3 2 2 1 1 1 1 1 1 1 2 2 1 1 1 2 2 3 2 2 3 3 3 3 3 3 3
3 5 4 5 5 6 7 6 6 4 5 3 2 2 1 0 1 2 2 2 3 2 3 3 2 2 2 2 1 1 1 1 1 1 1 2 2 2 2 2 2 2 3 3 3 3 3 3 3
5 4 4 4 4 6 6 8 5 6 6 5 4 2 2 1 0 0 1 2 2 3 3 3 3 3 3 3 2 2 2 1 1 1 2 2 2 2 2 2 2 2 2 3 3 3 3 3 3
5 6 7 6 6 5 5 9 1 3 3 3 3 1 1 1 1 0 1 2 3 3 3 3 3 3 3 2 2 2 2 2 2 2 2 1 2 2 2 2 2 2 3 3 3 4 4 4 4
Wind_Direction
347 360 54 56 58 56 245 251 239 272 262 349 54 113 135 145 163 203 345 84 81 125 149 167 152 144 138 134 130 126 122 119 116 113 111 109 108 107 105 101 98 95 91 88 86 82 81 79 76
345 21 55 61 93 147 258 246 237 249 253 60 45 63 75 23 20 57 15 352 99 123 128 134 133 134 134 133 131 128 125 122 119 114 108 106 106 103 99 97 97 96 94 92 89 85 81 80 78
7 48 81 82 131 188 228 243 228 300 19 60 48 38 78 324 344 223 279 112 103 111 106 122 126 129 129 130 129 128 127 123 118 115 109 103 99 98 97 95 93 92 93 94 92 87 81 83 80
69 49 59 86 210 225 234 292 307 349 18 36 89 37 3 351 315 262 112 113 114 112 100 116 123 129 130 129 130 132 130 125 119 116 110 101 96 93 92 90 87 85 88 93 92 88 86 82 77
58 76 73 324 245 252 256 291 308 4 346 8 84 110 312 341 3 78 111 119 130 127 112 125 126 131 130 131 131 128 127 126 124 121 114 110 105 96 90 87 84 80 79 87 91 92 90 86 82
61 73 112 226 249 271 277 285 142 312 300 354 115 149 256 356 43 73 108 112 121 124 117 122 132 126 128 125 119 114 114 114 120 119 115 114 112 103 92 84 80 75 70 72 83 92 92 92 87
107 109 172 208 248 274 278 324 154 229 254 255 187 164 267 357 26 69 86 91 89 92 95 85 106 119 121 117 110 108 107 103 100 102 96 88 91 93 85 75 71 63 58 57 53 74 95 93 82
125 116 167 217 219 251 291 355 218 198 236 266 143 167 249 262 90 83 76 72 78 83 90 81 76 83 92 108 101 97 93 90 87 78 75 73 72 75 74 69 64 53 40 45 47 45 72 83 77
97 96 209 215 202 239 282 340 325 299 111 8 170 196 261 104 105 95 78 62 69 75 83 84 83 77 79 88 89 91 84 76 73 68 69 73 69 68 66 65 63 51 38 38 45 40 37 51 52
103 177 220 212 199 216 264 217 278 343 330 292 286 317 43 110 126 135 148 166 173 183 155 108 111 106 100 92 82 75 71 64 60 57 57 63 68 63 60 61 57 47 39 36 44 41 39 39 31
154 200 219 238 226 230 270 271 275 195 257 239 235 237 149 139 147 171 187 190 197 192 175 155 145 139 118 106 100 88 82 70 61 64 62 66 67 57 53 49 40 35 34 30 31 34 19 20 9
169 249 231 250 240 255 249 260 270 215 232 243 224 188 165 182 196 200 202 205 194 179 192 184 164 154 148 135 139 130 116 106 90 78 80 85 80 65 60 51 39 32 20 24 29 35 17 16 352
216 268 272 259 276 252 267 252 249 255 253 269 265 154 197 209 219 222 218 209 192 198 201 195 178 169 157 151 155 137 145 143 140 120 106 111 121 110 80 42 27 26 23 38 38 46 26 18 359
233 266 285 280 259 257 244 269 245 264 258 248 227 223 223 226 226 222 214 208 206 212 212 200 187 185 172 169 179 175 164 147 146 151 149 146 135 130 125 115 21 14 14 3 26 114 1 308 336
327 326 315 289 245 245 212 297 242 252 234 247 248 242 241 240 235 228 225 217 213 215 206 199 195 187 187 188 189 175 167 161 174 175 165 155 139 145 147 152 181 347 13 12 25 36 29 359 343
70 37 294 287 208 247 156 266 268 242 207 255 259 254 246 243 235 239 236 230 221 210 202 198 194 191 196 193 186 176 173 177 187 179 180 179 165 155 154 166 202 269 68 41 42 39 20 355 330
37 243 251 288 251 159 180 254 277 248 235 259 264 260 254 260 262 250 238 228 222 214 208 198 196 193 201 192 178 170 174 181 185 183 191 190 178 170 163 185 188 166 140 97 59 36 21 347 335
220 221 242 250 279 188 242 261 277 282 256 258 265 266 262 259 259 250 236 227 221 214 204 198 195 195 191 175 151 147 157 184 187 196 206 191 190 183 170 174 176 166 156 140 56 38 8 12 355
185 207 244 254 260 235 254 268 277 278 267 266 267 265 264 265 272 262 234 219 204 199 194 195 191 191 169 175 176 189 210 214 220 225 221 201 195 191 178 175 178 178 179 185 151 80 41 27 17
223 238 255 280 284 242 281 281 277 258 243 243 248 254 256 266 289 283 263 217 214 216 213 208 207 196 191 196 192 194 189 203 210 215 221 211 201 198 190 185 188 193 183 169 162 124 118 36 43
228 221 230 248 327 324 318 296 276 266 251 259 248 245 254 254 262 262 241 228 224 229 223 221 219 210 201 183 145 110 105 96 179 230 234 236 219 204 202 194 185 200 188 194 197 178 165 198 282
238 222 213 224 297 288 17 289 281 260 274 264 262 261 262 266 262 259 249 239 231 235 229 225 217 204 191 175 167 168 190 212 220 226 228 228 215 213 214 201 187 200 197 194 201 191 189 176 210
214 142 162 189 197 284 243 249 280 271 270 262 253 251 254 256 252 257 257 251 257 244 226 228 214 193 183 184 190 192 206 220 224 235 216 218 216 220 225 209 187 199 208 199 198 196 200 200 201
147 84 67 63 91 264 226 205 274 228 231 251 252 253 258 269 272 284 327 2 342 344 330 276 202 202 184 188 197 200 206 206 203 229 232 236 240 229 226 224 201 211 213 203 203 201 206 217 216
137 111 33 345 307 251 197 213 253 241 230 227 245 256 266 276 309 328 347 355 356 358 350 342 340 292 256 207 217 219 218 210 214 219 220 229 241 250 241 229 220 224 216 211 206 205 213 213 218
187 169 175 206 232 273 238 236 253 246 248 252 253 248 284 310 344 345 348 13 10 5 4 360 338 306 295 245 247 242 228 218 231 231 228 226 233 236 233 227 231 226 217 213 210 216 224 223 228
168 200 190 152 114 277 261 273 292 252 265 251 245 248 264 274 1 13 13 22 15 7 4 0 356 347 334 314 299 280 238 229 237 239 234 237 250 261 245 234 236 231 221 213 209 222 225 230 234
178 160 140 164 189 246 271 256 245 230 237 245 246 238 255 341 28 14 16 14 6 3 2 8 12 4 355 355 345 325 291 260 248 239 244 254 259 251 241 247 239 235 231 218 214 227 227 229 240
165 176 180 172 183 190 251 260 223 209 205 208 225 227 225 207 230 353 8 10 13 11 10 8 5 8 4 357 356 354 327 314 305 265 257 256 259 250 238 242 241 240 246 234 223 232 228 231 244
197 196 175 184 222 211 231 261 255 213 208 189 206 208 160 168 155 61 9 10 14 11 7 4 358 357 351 351 2 360 352 350 337 309 294 285 269 259 250 249 252 253 249 244 234 236 232 230 236